| time (UTC) | temp F | wind direction | speed MPH | gust MPH | rain 1hr in | rain 24hr in | rain mn in | humidity % | barometer mb |
| 20260508140044 | 67 | 10 | 2.0 | 5.0 | 0.00 | 0.00 | 0.00 | 91 | 1013.9 |
| 20260508134544 | 67 | 16 | 1.0 | 4.0 | 0.00 | 0.00 | 0.00 | 91 | 1013.9 |
| 20260508133042 | 68 | 11 | 0.0 | 1.0 | 0.00 | 0.00 | 0.00 | 91 | 1014.0 |
| 20260508131541 | 68 | 13 | 0.0 | 3.0 | 0.00 | 0.00 | 0.00 | 91 | 1014.2 |
| 20260508130038 | 68 | 13 | 0.0 | 1.0 | 0.00 | 0.00 | 0.00 | 91 | 1013.7 |
| 20260508124536 | 68 | 360 | 0.0 | 4.0 | 0.00 | 0.00 | 0.00 | 91 | 1013.9 |
| 20260508123037 | 68 | 31 | 0.0 | 4.0 | 0.00 | 0.00 | 0.00 | 91 | 1014.0 |
| 20260508121534 | 68 | 348 | 1.0 | 4.0 | 0.00 | 0.00 | 0.00 | 91 | 1014.1 |
| 20260508120032 | 68 | 360 | 0.0 | 4.0 | 0.00 | 0.00 | 0.00 | 91 | 1013.7 |
| 20260508114530 | 69 | 66 | 0.0 | 3.0 | 0.00 | 0.00 | 0.00 | 91 | 1013.5 |
| 20260508113029 | 69 | 15 | 0.0 | 3.0 | 0.00 | 0.00 | 0.00 | 91 | 1013.6 |
| 20260508111528 | 69 | 18 | 0.0 | 3.0 | 0.00 | 0.00 | 0.00 | 91 | 1014.0 |
| 20260508110033 | 69 | 334 | 0.0 | 3.0 | 0.00 | 0.00 | 0.00 | 91 | 1013.8 |
| 20260508104526 | 69 | 223 | 0.0 | 2.0 | 0.00 | 0.00 | 0.00 | 91 | 1013.0 |
| 20260508103037 | 69 | 223 | 0.0 | 1.0 | 0.00 | 0.00 | 0.00 | 90 | 1013.3 |
| 20260508101522 | 70 | 323 | 0.0 | 2.0 | 0.00 | 0.00 | 0.00 | 90 | 1013.5 |
| 20260508100019 | 70 | 23 | 0.0 | 2.0 | 0.00 | 0.00 | 0.00 | 90 | 1013.5 |
| 20260508094517 | 71 | 341 | 0.0 | 4.0 | 0.00 | 0.00 | 0.00 | 89 | 1013.6 |
| 20260508093014 | 72 | 344 | 0.0 | 6.0 | 0.00 | 0.00 | 0.00 | 90 | 1013.5 |
| 20260508091515 | 73 | 150 | 0.0 | 0.0 | 0.00 | 0.00 | 0.00 | 89 | 1013.6 |
| 20260508090013 | 73 | 150 | 0.0 | 5.0 | 0.00 | 0.00 | 0.00 | 89 | 1013.5 |
| 20260508084511 | 73 | 150 | 0.0 | 2.0 | 0.00 | 0.00 | 0.00 | 88 | 1013.5 |
| 20260508083010 | 73 | 152 | 0.0 | 3.0 | 0.00 | 0.00 | 0.00 | 88 | 1013.5 |
| 20260508081509 | 73 | 152 | 0.0 | 2.0 | 0.00 | 0.00 | 0.00 | 88 | 1013.7 |
| 20260508080007 | 74 | 161 | 0.0 | 5.0 | 0.00 | 0.00 | 0.00 | 88 | 1013.5 |
| 20260508074508 | 74 | 127 | 0.0 | 3.0 | 0.00 | 0.00 | 0.00 | 87 | 1013.5 |
| 20260508073007 | 74 | 128 | 0.0 | 4.0 | 0.00 | 0.00 | 0.00 | 87 | 1013.6 |
| 20260508071508 | 74 | 127 | 0.0 | 3.0 | 0.00 | 0.00 | 0.00 | 87 | 1013.9 |
| 20260508070004 | 74 | 144 | 1.0 | 7.0 | 0.00 | 0.00 | 0.00 | 87 | 1013.6 |
| 20260508064559 | 74 | 159 | 0.0 | 5.0 | 0.00 | 0.00 | 0.00 | 88 | 1013.5 |
| 20260508063058 | 74 | 136 | 0.0 | 2.0 | 0.00 | 0.00 | 0.00 | 88 | 1014.0 |
| 20260508061550 | 74 | 136 | 0.0 | 4.0 | 0.00 | 0.00 | 0.00 | 87 | 1014.3 |
| 20260508054633 | 74 | 137 | 0.0 | 3.0 | 0.00 | 0.00 | 0.00 | 86 | 1014.1 |
| 20260508053051 | 74 | 143 | 2.0 | 7.0 | 0.00 | 0.00 | 0.00 | 86 | 1013.4 |
| 20260508051543 | 74 | 143 | 0.0 | 7.0 | 0.00 | 0.00 | 0.00 | 85 | 1013.8 |
| 20260508050043 | 74 | 119 | 1.0 | 8.0 | 0.00 | 0.00 | 0.00 | 84 | 1013.7 |
| 20260508044540 | 74 | 150 | 1.0 | 4.0 | 0.00 | 0.00 | 0.00 | 84 | 1013.5 |
| 20260508043039 | 74 | 126 | 0.0 | 2.0 | 0.00 | 0.00 | 0.00 | 85 | 1014.1 |
| 20260508041542 | 75 | 257 | 0.0 | 4.0 | 0.00 | 0.00 | 0.00 | 84 | 1014.6 |
| 20260508040038 | 75 | 325 | 0.0 | 3.0 | 0.00 | 0.00 | 0.00 | 84 | 1015.0 |
| 20260508034547 | 75 | 325 | 0.0 | 2.0 | 0.00 | 0.00 | 0.00 | 83 | 1015.2 |
| 20260508033037 | 75 | 326 | 0.0 | 2.0 | 0.00 | 0.00 | 0.00 | 84 | 1015.1 |
| 20260508031536 | 75 | 325 | 0.0 | 3.0 | 0.00 | 0.00 | 0.00 | 83 | 1014.9 |
| 20260508030040 | 75 | 314 | 0.0 | 3.0 | 0.00 | 0.00 | 0.00 | 82 | 1014.7 |
| 20260508024543 | 76 | 303 | 0.0 | 2.0 | 0.00 | 0.00 | 0.00 | 81 | 1014.7 |
| 20260508023035 | 76 | 303 | 0.0 | 1.0 | 0.00 | 0.00 | 0.00 | 80 | 1014.8 |
| 20260508021535 | 76 | 303 | 0.0 | 3.0 | 0.00 | 0.00 | 0.00 | 81 | 1014.7 |
| 20260508020034 | 76 | 22 | 0.0 | 5.0 | 0.00 | 0.00 | 0.00 | 80 | 1014.6 |
| 20260508014538 | 76 | 23 | 2.0 | 5.0 | 0.00 | 0.00 | 0.00 | 80 | 1014.7 |
| 20260508013033 | 76 | 26 | 1.0 | 6.0 | 0.00 | 0.00 | 0.00 | 80 | 1014.6 |
| 20260508011533 | 76 | 340 | 2.0 | 8.0 | 0.00 | 0.00 | 0.00 | 80 | 1014.3 |
| 20260508010045 | 76 | 49 | 3.0 | 9.0 | 0.00 | 0.00 | 0.00 | 80 | 1014.3 |
| 20260508004532 | 77 | 28 | 1.0 | 5.0 | 0.00 | 0.00 | 0.00 | 80 | 1014.2 |
| 20260508003031 | 77 | 22 | 1.0 | 5.0 | 0.00 | 0.00 | 0.00 | 80 | 1014.1 |
| 20260508001531 | 77 | 14 | 1.0 | 3.0 | 0.00 | 0.00 | 0.00 | 79 | 1014.2 |
| 20260508000029 | 78 | 5 | 1.0 | 4.0 | 0.00 | 0.00 | 0.00 | 78 | 1014.3 |
| 20260507234529 | 78 | 5 | 1.0 | 4.0 | 0.00 | 0.00 | 0.00 | 77 | 1014.0 |
| 20260507233029 | 79 | 350 | 1.0 | 3.0 | 0.00 | 0.00 | 0.00 | 76 | 1014.0 |
| 20260507231527 | 79 | 360 | 0.0 | 3.0 | 0.00 | 0.00 | 0.00 | 76 | 1014.1 |
| 20260507230035 | 80 | 360 | 2.0 | 6.0 | 0.00 | 0.00 | 0.00 | 75 | 1014.1 |
| 20260507224529 | 80 | 37 | 0.0 | 4.0 | 0.00 | 0.00 | 0.00 | 74 | 1014.1 |
| 20260507223026 | 81 | 221 | 0.0 | 5.0 | 0.00 | 0.00 | 0.00 | 74 | 1014.0 |
| 20260507221524 | 81 | 234 | 0.0 | 3.0 | 0.00 | 0.00 | 0.00 | 74 | 1014.2 |
| 20260507220024 | 80 | 229 | 0.0 | 4.0 | 0.00 | 0.00 | 0.00 | 75 | 1014.2 |
| 20260507214522 | 80 | 355 | 1.0 | 8.0 | 0.00 | 0.00 | 0.00 | 75 | 1013.9 |
| 20260507213022 | 79 | 13 | 0.0 | 3.0 | 0.00 | 0.00 | 0.00 | 76 | 1014.2 |
| 20260507211532 | 80 | 15 | 0.0 | 0.0 | 0.00 | 0.00 | 0.00 | 74 | 1014.4 |
| 20260507210017 | 79 | 297 | 0.0 | 0.0 | 0.00 | 0.00 | 0.00 | 75 | 1014.5 |
| 20260507204521 | 79 | 327 | 0.0 | 6.0 | 0.00 | 0.00 | 0.00 | 75 | 1014.9 |
| 20260507203016 | 78 | 5 | 1.0 | 8.0 | 0.00 | 0.00 | 0.00 | 76 | 1014.7 |
| 20260507201513 | 77 | 360 | 2.0 | 8.0 | 0.00 | 0.00 | 0.00 | 76 | 1015.0 |
| 20260507200009 | 77 | 319 | 0.0 | 4.0 | 0.00 | 0.00 | 0.00 | 77 | 1015.2 |
| 20260507194506 | 76 | 5 | 1.0 | 4.0 | 0.00 | 0.00 | 0.00 | 78 | 1015.3 |
| 20260507193001 | 75 | 332 | 0.0 | 0.0 | 0.00 | 0.00 | 0.00 | 79 | 1015.6 |
| 20260507191600 | 74 | 32 | 0.0 | 0.0 | 0.00 | 0.00 | 0.00 | 79 | 1015.7 |
| 20260507190059 | 73 | 18 | 0.0 | 0.0 | 0.00 | 0.00 | 0.00 | 80 | 1015.8 |
| 20260507184558 | 73 | 332 | 0.0 | 0.0 | 0.00 | 0.00 | 0.00 | 79 | 1015.9 |
| 20260507183057 | 73 | 340 | 0.0 | 0.0 | 0.00 | 0.00 | 0.00 | 80 | 1016.0 |
| 20260507181557 | 72 | 334 | 0.0 | 0.0 | 0.00 | 0.00 | 0.00 | 81 | 1016.2 |
| 20260507174608 | 70 | 5 | 0.0 | 6.0 | 0.00 | 0.00 | 0.00 | 81 | 1016.4 |
| 20260507173054 | 69 | 39 | 1.0 | 9.0 | 0.00 | 0.00 | 0.00 | 83 | 1016.6 |
| 20260507171603 | 68 | 19 | 1.0 | 6.0 | 0.00 | 0.00 | 0.00 | 84 | 1016.7 |
| 20260507170048 | 67 | 18 | 3.0 | 8.0 | 0.00 | 0.00 | 0.00 | 85 | 1016.5 |
| 20260507164549 | 66 | 348 | 1.0 | 8.0 | 0.00 | 0.00 | 0.00 | 86 | 1016.5 |
| 20260507163050 | 66 | 21 | 1.0 | 8.0 | 0.00 | 0.00 | 0.00 | 86 | 1016.7 |
| 20260507161544 | 66 | 310 | 1.0 | 7.0 | 0.00 | 0.00 | 0.00 | 87 | 1016.5 |
| 20260507160048 | 65 | 37 | 1.0 | 9.0 | 0.00 | 0.00 | 0.00 | 87 | 1016.5 |
| 20260507154542 | 65 | 334 | 4.0 | 8.0 | 0.00 | 0.00 | 0.00 | 86 | 1016.7 |
| 20260507153045 | 65 | 341 | 1.0 | 9.0 | 0.00 | 0.00 | 0.00 | 87 | 1016.7 |
| 20260507151543 | 65 | 5 | 1.0 | 7.0 | 0.00 | 0.00 | 0.00 | 87 | 1016.6 |
| 20260507150038 | 65 | 16 | 2.0 | 10.0 | 0.00 | 0.00 | 0.00 | 87 | 1016.4 |
| 20260507144536 | 65 | 329 | 2.0 | 8.0 | 0.00 | 0.00 | 0.00 | 87 | 1016.4 |
| 20260507143039 | 65 | 17 | 3.0 | 11.0 | 0.00 | 0.00 | 0.00 | 87 | 1016.3 |
| 20260507141542 | 65 | 347 | 3.0 | 9.0 | 0.00 | 0.00 | 0.00 | 87 | 1016.2 |